Helicity
134 122 117 109 104 101 95 100 104 113 107 115 123 134 128 109 101 87 87 84 92 80 72 75 61 43 48
89 93 96 87 83 95 95 99 105 98 101 106 113 120 109 103 84 75 86 95 91 80 79 56 46 30 21
77 77 74 80 89 90 90 109 104 103 104 96 98 85 75 83 96 102 98 91 84 80 54 68 65 60 45
53 52 62 69 78 77 107 117 136 140 91 79 63 45 63 85 102 103 101 88 81 57 49 51 49 35 23
41 58 68 82 88 96 114 131 131 107 142 111 122 109 111 93 110 90 89 81 66 52 51 48 28 10 5
41 55 70 84 99 113 118 129 130 114 155 117 111 103 115 145 90 82 79 105 102 56 50 23 9 10 8
50 58 74 96 106 112 131 142 157 143 142 137 99 96 97 150 85 85 92 68 69 47 39 25 17 16 11
90 91 87 92 131 146 150 142 133 117 145 189 120 99 114 146 65 80 92 68 58 44 31 29 27 22 17
117 102 106 141 156 174 158 156 149 140 119 170 112 92 80 102 75 72 80 51 60 76 59 41 34 34 50
127 130 143 149 151 162 159 163 158 157 134 144 109 90 68 68 105 89 108 57 66 76 80 73 91 91 57
117 126 136 133 129 140 165 186 192 212 147 164 190 145 167 127 113 99 61 71 77 81 62 83 87 73 65
127 134 134 131 121 131 153 164 176 169 148 168 206 168 162 133 106 96 70 61 80 61 70 41 40 50 53
140 130 123 126 125 149 151 138 140 138 155 175 207 187 175 138 121 59 25 39 47 56 52 65 85 84 59
135 124 117 121 137 158 157 133 126 136 144 149 164 186 155 135 120 29 65 77 94 74 71 76 84 99 94
136 120 98 107 118 141 153 143 153 132 123 139 136 142 144 125 105 93 29 83 114 79 63 56 69 98 102
128 119 127 133 132 134 155 151 126 115 119 136 137 120 94 93 93 106 73 46 84 59 76 55 40 87 96
131 136 161 155 131 140 133 128 119 117 121 134 152 160 92 104 109 24 73 87 59 57 74 102 80 93 73
Wind_Speed
42 49 53 57 59 63 66 70 71 75 76 80 77 80 86 85 85 83 84 86 87 86 85 85 83 81 78
48 51 55 56 59 65 69 69 74 75 79 74 75 86 86 87 84 83 83 82 83 81 82 78 75 72 68
53 51 53 57 63 66 72 74 74 75 76 73 76 87 84 85 82 80 79 80 78 76 72 68 67 69 69
52 55 55 60 65 77 80 74 80 79 72 70 84 81 82 80 78 80 77 75 73 66 61 62 70 73 71
57 60 64 70 78 74 77 82 81 69 71 80 79 76 75 71 76 73 74 69 63 60 62 67 69 69 67
60 66 68 71 70 74 77 85 86 67 85 84 75 73 72 75 75 73 61 53 65 64 68 68 66 68 73
61 64 69 68 69 75 78 80 82 81 81 85 70 74 74 74 72 62 46 46 73 73 71 67 68 74 74
58 62 63 65 69 72 75 79 77 74 69 77 67 74 75 70 63 53 42 63 84 76 70 73 78 76 68
59 62 66 67 70 73 81 85 86 78 63 65 69 76 69 60 53 51 63 87 83 76 78 78 77 70 65
64 67 66 65 70 70 75 80 80 80 59 70 69 70 69 52 58 64 63 73 80 82 79 78 70 67 64
70 69 65 67 69 70 68 70 72 67 61 63 63 65 56 66 60 68 67 77 77 76 79 75 72 76 67
73 73 73 72 70 69 65 61 55 57 57 55 57 60 62 65 68 73 80 73 69 76 71 76 76 70 64
74 73 71 69 67 65 62 60 58 55 56 54 56 57 56 59 66 89 89 73 68 67 80 71 63 57 61
73 73 69 72 70 64 68 69 67 66 62 57 56 54 56 53 59 88 83 70 72 80 78 68 58 48 43
72 73 73 74 71 65 65 69 67 69 69 66 60 54 50 51 59 75 85 78 72 81 78 72 59 48 43
71 73 73 75 72 68 68 68 69 69 69 68 67 66 62 51 40 64 81 83 83 81 80 75 65 54 45
71 71 74 71 73 74 71 69 69 68 67 66 66 63 65 62 54 50 73 85 87 84 80 70 64 58 54
Wind_Direction
331 334 335 337 336 336 336 336 336 335 335 334 335 335 333 331 330 329 327 326 326 324 323 322 320 320 320
333 334 335 337 337 336 336 338 336 336 334 336 336 334 333 332 330 328 328 327 327 325 324 324 324 323 323
334 336 337 338 337 336 336 336 337 337 337 337 337 334 333 333 332 332 330 328 327 327 327 328 329 326 323
337 336 337 338 337 334 333 337 336 338 339 339 336 335 334 333 333 332 332 331 331 330 330 329 325 322 323
337 336 335 335 334 336 335 335 337 340 340 338 337 337 337 336 335 334 333 334 335 333 328 324 325 327 325
338 335 336 336 337 337 337 335 335 343 338 336 339 339 340 338 336 335 338 343 338 330 324 324 326 325 312
339 338 336 339 338 336 336 335 334 335 336 334 341 340 341 340 338 340 344 342 331 322 323 326 324 315 311
342 341 340 340 339 338 338 336 336 337 339 335 341 340 341 342 344 345 345 331 317 320 323 321 312 309 319
344 342 341 341 341 340 338 337 336 339 343 340 340 338 341 345 351 351 341 314 312 319 317 313 310 316 322
343 342 343 343 343 342 340 338 338 339 345 340 340 343 341 346 343 339 340 330 318 314 312 308 316 322 325
342 342 343 343 343 343 343 340 337 334 337 339 338 339 338 336 339 336 336 329 326 322 308 309 315 316 324
341 341 341 341 343 344 345 344 340 335 336 336 334 334 333 332 333 330 327 331 331 319 318 317 316 323 327
342 342 343 343 342 343 346 346 343 339 339 336 333 333 332 330 330 316 315 330 329 328 315 325 331 334 333
342 343 344 344 343 344 343 345 343 342 340 338 336 334 332 331 331 309 315 325 327 319 320 326 333 337 338
343 343 343 345 344 344 343 342 340 340 339 339 339 338 335 331 330 321 306 318 325 318 320 324 332 337 338
342 343 343 343 342 343 342 340 339 339 338 338 338 339 340 340 335 327 312 306 312 316 316 321 328 336 338
343 343 342 342 341 340 340 339 338 338 337 337 337 339 338 336 339 337 323 313 308 312 316 325 328 332 335